Flag Weather past 2 weeks in Schaffhausen, Schaffhausen, Switzerland

Now
44 °F

Fog.


Feels Like: 43 °F
Forecast: 35 / 50 °F
Wind: 3 mph from Northwest

Location: Zurich-Kloten

Current Time: Nov 26, 2014 at 8:03:19 AM

Latest Report: Nov 26, 2014 at 7:00 AM


Visibility: 2 mi

Pressure: 30.03 "Hg

Humidity: 97%

Dew point: 44 °F

Location of SchaffhausenLocation

Historic Weather in Schaffhausen — Graph

°F

Schaffhausen temperature yesterday

Maximum temperature yesterday: 48 °F (at 1:00 PM)
Minimum temperature yesterday: 45 °F (at 10:00 PM)
Average temperature yesterday: 47 °F

Past Weeks' High & Low Weather Summary

 TemperatureHumidityPressure
High53 °F (Nov 15, 12:00 PM)100% (Nov 19, 11:00 PM)30.32 "Hg (Nov 19, 11:00 PM)
Low33 °F (Nov 20, 1:00 AM)62% (Nov 19, 3:00 PM)29.57 "Hg (Nov 15, 9:00 PM)
Average44 °F91%29.97 "Hg
* Reported Nov 11 6:00 AM — Nov 26 6:00 AM, Schaffhausen, Weather by CustomWeather, © 2014

Note: Actual official high and low records may vary slightly from our data, if they occured in-between our weather recording intervals... More about our weather records

Advertising

Schaffhausen weather history for previous 24 hours

 ConditionsComfort  
Time TempWeatherWind HumidityBarometerVisibility
6:00 AM
Nov 26
45 °FQuite cool.2 mph97%30.03 "HgN/A
5:00 AM45 °FQuite cool.2 mph97%30.04 "HgN/A
3:00 AM45 °FQuite cool.2 mph97%30.06 "HgN/A
2:00 AM45 °FQuite cool.2 mph97%30.07 "HgN/A
1:00 AM45 °FDrizzle. Low clouds.1 mph97%30.09 "Hg2 mi
12:00 AM45 °FQuite cool.3 mph96%30.10 "HgN/A
11:00 PM
Nov 25
45 °FCool.3 mph93%30.10 "HgN/A
10:00 PM45 °FFog.2 mph93%30.11 "Hg4 mi
9:00 PM46 °FCool.6 mph90%30.10 "HgN/A
8:00 PM46 °FCool.7 mph90%30.11 "HgN/A
7:00 PM46 °FFog.7 mph91%30.11 "Hg3 mi
6:00 PM46 °FCool.9 mph93%30.12 "HgN/A
5:00 PM46 °FCool.7 mph92%30.12 "HgN/A
4:00 PM47 °FFog.5 mph90%30.12 "Hg4 mi
3:00 PM47 °FCool.7 mph90%30.13 "HgN/A
2:00 PM47 °FCool.7 mph90%30.14 "HgN/A
1:00 PM48 °FFog.6 mph90%30.15 "Hg3 mi
12:00 PM47 °FCool.6 mph89%30.16 "HgN/A
11:00 AM47 °FCool.6 mph90%30.18 "HgN/A
10:00 AM46 °FFog.6 mph92%30.19 "Hg3 mi
9:00 AM46 °FCool.6 mph95%30.19 "HgN/A
8:00 AM47 °FCool.6 mph94%30.19 "HgN/A
Weather by CustomWeather, © 2014

See weather overviewHow to use our weather pages